Time,TemperatureF,DewpointF,PressureIn,WindDirection,WindDirectionDegrees,WindSpeedMPH,WindSpeedGustMPH,Humidity,HourlyPrecipIn,Conditions,Clouds,dailyrainin,SoftwareType,DateUTC
2013-07-26 00:01:00,59.9,-99.9,30.08,North,0,4.0,4.0,-999,0.00,,---,-99.99,VWS V14.01,2013-07-26 04:01:00,
2013-07-26 00:02:00,59.9,-99.9,30.08,North,0,3.0,4.0,-999,0.00,,---,-99.99,VWS V14.01,2013-07-26 04:02:00,
2013-07-26 00:07:00,59.9,-99.9,30.08,North,359,4.0,6.0,-999,0.00,,---,-99.99,VWS V14.01,2013-07-26 04:07:00,
2013-07-26 00:12:00,60.0,-99.9,30.08,North,359,2.0,6.0,-999,0.00,,---,-99.99,VWS V14.01,2013-07-26 04:12:00,
2013-07-26 00:17:00,60.0,-99.9,30.08,North,359,4.0,6.0,-999,0.00,,---,-99.99,VWS V14.01,2013-07-26 04:17:00,
2013-07-26 00:22:00,60.0,-99.9,30.08,North,358,3.0,7.0,-999,0.00,,---,-99.99,VWS V14.01,2013-07-26 04:22:00,
2013-07-26 00:27:00,60.1,-99.9,30.08,North,358,1.0,7.0,-999,0.00,,---,-99.99,VWS V14.01,2013-07-26 04:27:00,
2013-07-26 00:32:00,60.1,-99.9,30.08,North,358,3.0,4.0,-999,0.00,,---,-99.99,VWS V14.01,2013-07-26 04:32:00,
2013-07-26 00:37:00,60.1,-99.9,30.08,North,355,3.0,8.0,-999,0.00,,---,-99.99,VWS V14.01,2013-07-26 04:37:00,
2013-07-26 00:42:00,60.1,-99.9,30.08,North,354,4.0,8.0,-999,0.00,,---,-99.99,VWS V14.01,2013-07-26 04:42:00,
2013-07-26 00:47:00,60.2,-99.9,30.08,North,352,2.0,8.0,-999,0.00,,---,-99.99,VWS V14.01,2013-07-26 04:47:00,
2013-07-26 00:52:00,60.2,-99.9,30.07,NNW,345,2.0,8.0,-999,0.00,,---,-99.99,VWS V14.01,2013-07-26 04:52:00,
2013-07-26 00:57:00,60.2,-99.9,30.08,NNW,345,5.0,8.0,-999,0.00,,---,-99.99,VWS V14.01,2013-07-26 04:57:00,
2013-07-26 01:02:00,60.2,-99.9,30.07,NNW,345,4.0,5.0,-999,0.00,,---,-99.99,VWS V14.01,2013-07-26 05:02:00,
2013-07-26 01:07:00,60.2,-99.9,30.07,NNW,345,3.0,6.0,-999,0.00,,---,-99.99,VWS V14.01,2013-07-26 05:07:00,
2013-07-26 01:12:00,60.2,-99.9,30.07,NNW,346,3.0,6.0,-999,0.00,,---,-99.99,VWS V14.01,2013-07-26 05:12:00,
2013-07-26 01:17:00,60.2,-99.9,30.07,NNW,346,2.0,6.0,-999,0.00,,---,-99.99,VWS V14.01,2013-07-26 05:17:00,
2013-07-26 01:22:00,60.3,-99.9,30.07,NNW,347,3.0,6.0,-999,0.00,,---,-99.99,VWS V14.01,2013-07-26 05:22:00,
2013-07-26 01:27:00,60.3,-99.9,30.07,NNW,347,3.0,6.0,-999,0.00,,---,-99.99,VWS V14.01,2013-07-26 05:27:00,
2013-07-26 01:32:00,60.3,-99.9,30.06,NNW,347,2.0,5.0,-999,0.00,,---,-99.99,VWS V14.01,2013-07-26 05:32:00,
2013-07-26 01:37:00,60.3,-99.9,30.06,NNW,348,3.0,6.0,-999,0.00,,---,-99.99,VWS V14.01,2013-07-26 05:37:00,
2013-07-26 01:42:00,60.4,-99.9,30.06,North,349,1.0,6.0,-999,0.00,,---,-99.99,VWS V14.01,2013-07-26 05:42:00,
2013-07-26 01:47:00,60.4,-99.9,30.07,North,349,2.0,6.0,-999,0.00,,---,-99.99,VWS V14.01,2013-07-26 05:47:00,
2013-07-26 01:52:00,60.4,-99.9,30.06,NNW,348,4.0,6.0,-999,0.00,,---,-99.99,VWS V14.01,2013-07-26 05:52:00,
2013-07-26 01:57:00,60.4,-99.9,30.06,NNW,347,4.0,8.0,-999,0.00,,---,-99.99,VWS V14.01,2013-07-26 05:57:00,
2013-07-26 02:02:00,60.4,-99.9,30.06,NNW,347,1.0,6.0,-999,0.00,,---,-99.99,VWS V14.01,2013-07-26 06:02:00,
2013-07-26 02:07:00,60.5,-99.9,30.06,NNW,345,3.0,8.0,-999,0.00,,---,-99.99,VWS V14.01,2013-07-26 06:07:00,
2013-07-26 02:12:00,60.5,-99.9,30.06,NNW,345,1.0,8.0,-999,0.00,,---,-99.99,VWS V14.01,2013-07-26 06:12:00,
2013-07-26 02:17:00,60.5,-99.9,30.05,NNW,346,1.0,8.0,-999,0.00,,---,-99.99,VWS V14.01,2013-07-26 06:17:00,
2013-07-26 02:22:00,60.5,-99.9,30.06,NNW,346,3.0,8.0,-999,0.00,,---,-99.99,VWS V14.01,2013-07-26 06:22:00,
2013-07-26 02:27:00,60.5,-99.9,30.05,NNW,346,0.0,8.0,-999,0.00,,---,-99.99,VWS V14.01,2013-07-26 06:27:00,
2013-07-26 02:32:00,60.6,-99.9,30.05,NNW,346,2.0,5.0,-999,0.00,,---,-99.99,VWS V14.01,2013-07-26 06:32:00,
2013-07-26 02:37:00,60.6,-99.9,30.05,NNW,346,3.0,6.0,-999,0.00,,---,-99.99,VWS V14.01,2013-07-26 06:37:00,
2013-07-26 02:42:00,60.6,-99.9,30.05,NNW,346,2.0,6.0,-999,0.00,,---,-99.99,VWS V14.01,2013-07-26 06:42:00,
2013-07-26 02:47:00,60.6,-99.9,30.05,NNW,345,2.0,6.0,-999,0.00,,---,-99.99,VWS V14.01,2013-07-26 06:47:00,
2013-07-26 02:52:00,60.7,-99.9,30.05,NNW,345,2.0,6.0,-999,0.00,,---,-99.99,VWS V14.01,2013-07-26 06:52:00,
2013-07-26 02:57:00,60.7,-99.9,30.05,NNW,345,3.0,6.0,-999,0.00,,---,-99.99,VWS V14.01,2013-07-26 06:57:00,
2013-07-26 03:02:00,60.7,-99.9,30.05,NNW,345,1.0,4.0,-999,0.00,,---,-99.99,VWS V14.01,2013-07-26 07:02:00,
2013-07-26 03:07:00,60.7,-99.9,30.05,NNW,345,2.0,5.0,-999,0.00,,---,-99.99,VWS V14.01,2013-07-26 07:07:00,
2013-07-26 03:12:00,60.7,-99.9,30.05,NNW,345,3.0,5.0,-999,0.00,,---,-99.99,VWS V14.01,2013-07-26 07:12:00,
2013-07-26 03:17:00,60.7,-99.9,30.05,NNW,345,3.0,6.0,-999,0.00,,---,-99.99,VWS V14.01,2013-07-26 07:17:00,
2013-07-26 03:22:00,60.8,-99.9,30.04,NNW,345,0.0,6.0,-999,0.00,,---,-99.99,VWS V14.01,2013-07-26 07:22:00,
2013-07-26 03:27:00,60.8,-99.9,30.05,NNW,345,0.0,6.0,-999,0.00,,---,-99.99,VWS V14.01,2013-07-26 07:27:00,
2013-07-26 03:32:00,60.8,-99.9,30.04,NNW,345,0.0,1.0,-999,0.00,,---,-99.99,VWS V14.01,2013-07-26 07:32:00,
2013-07-26 03:37:00,60.8,-99.9,30.04,NNW,346,0.0,1.0,-999,0.00,,---,-99.99,VWS V14.01,2013-07-26 07:37:00,
2013-07-26 03:42:00,60.8,-99.9,30.04,NNW,346,0.0,1.0,-999,0.00,,---,-99.99,VWS V14.01,2013-07-26 07:42:00,
2013-07-26 03:47:00,60.8,-99.9,30.04,NNW,346,5.0,5.0,-999,0.00,,---,-99.99,VWS V14.01,2013-07-26 07:47:00,
2013-07-26 03:52:00,60.8,-99.9,30.03,NNW,346,4.0,6.0,-999,0.00,,---,-99.99,VWS V14.01,2013-07-26 07:52:00,
2013-07-26 03:57:00,60.8,-99.9,30.03,NNW,346,7.0,7.0,-999,0.00,,---,-99.99,VWS V14.01,2013-07-26 07:57:00,
2013-07-26 04:02:00,60.8,-99.9,30.03,NNW,346,3.0,5.0,-999,0.00,,---,-99.99,VWS V14.01,2013-07-26 08:02:00,
2013-07-26 04:07:00,60.8,-99.9,30.03,NNW,346,5.0,6.0,-999,0.00,,---,-99.99,VWS V14.01,2013-07-26 08:07:00,
2013-07-26 04:12:00,60.9,-99.9,30.03,NNW,346,6.0,8.0,-999,0.00,,---,-99.99,VWS V14.01,2013-07-26 08:12:00,
2013-07-26 04:17:00,60.9,-99.9,30.03,NNW,345,5.0,8.0,-999,0.00,,---,-99.99,VWS V14.01,2013-07-26 08:17:00,
2013-07-26 04:22:00,60.9,-99.9,30.03,NNW,341,6.0,8.0,-999,0.00,,---,-99.99,VWS V14.01,2013-07-26 08:22:00,
2013-07-26 04:27:00,60.9,-99.9,30.03,North,349,3.0,8.0,-999,0.00,,---,-99.99,VWS V14.01,2013-07-26 08:27:00,
2013-07-26 04:32:00,60.9,-99.9,30.03,North,350,4.0,6.0,-999,0.00,,---,-99.99,VWS V14.01,2013-07-26 08:32:00,
2013-07-26 04:37:00,60.9,-99.9,30.03,North,359,4.0,8.0,-999,0.00,,---,-99.99,VWS V14.01,2013-07-26 08:37:00,
2013-07-26 04:42:00,60.9,-99.9,30.03,North,357,1.0,8.0,-999,0.00,,---,-99.99,VWS V14.01,2013-07-26 08:42:00,
2013-07-26 04:47:00,61.0,-99.9,30.03,North,353,4.0,8.0,-999,0.00,,---,-99.99,VWS V14.01,2013-07-26 08:47:00,
2013-07-26 04:52:00,61.0,-99.9,30.02,North,353,5.0,8.0,-999,0.00,,---,-99.99,VWS V14.01,2013-07-26 08:52:00,
2013-07-26 04:57:00,61.0,-99.9,30.02,North,354,7.0,9.0,-999,0.00,,---,-99.99,VWS V14.01,2013-07-26 08:57:00,
2013-07-26 05:02:00,61.1,-99.9,30.02,North,354,4.0,10.0,-999,0.00,,---,-99.99,VWS V14.01,2013-07-26 09:02:00,
2013-07-26 05:07:00,61.1,-99.9,30.02,North,358,5.0,10.0,-999,0.00,,---,-99.99,VWS V14.01,2013-07-26 09:07:00,
2013-07-26 05:12:00,61.1,-99.9,30.02,North,355,4.0,10.0,-999,0.00,,---,-99.99,VWS V14.01,2013-07-26 09:12:00,
2013-07-26 05:17:00,61.2,-99.9,30.02,North,354,7.0,10.0,-999,0.00,,---,-99.99,VWS V14.01,2013-07-26 09:17:00,
2013-07-26 05:22:00,61.2,-99.9,30.02,North,355,3.0,10.0,-999,0.00,,---,-99.99,VWS V14.01,2013-07-26 09:22:00,
2013-07-26 05:27:00,61.2,-99.9,30.02,North,351,4.0,10.0,-999,0.00,,---,-99.99,VWS V14.01,2013-07-26 09:27:00,
2013-07-26 05:32:00,61.3,-99.9,30.02,North,355,4.0,7.0,-999,0.00,,---,-99.99,VWS V14.01,2013-07-26 09:32:00,
2013-07-26 05:37:00,61.3,-99.9,30.02,North,356,5.0,10.0,-999,0.00,,---,-99.99,VWS V14.01,2013-07-26 09:37:00,
2013-07-26 05:42:00,61.3,-99.9,30.02,North,351,7.0,10.0,-999,0.00,,---,-99.99,VWS V14.01,2013-07-26 09:42:00,
2013-07-26 05:47:00,61.3,-99.9,30.02,North,0,5.0,11.0,-999,0.00,,---,-99.99,VWS V14.01,2013-07-26 09:47:00,
2013-07-26 05:52:00,61.4,-99.9,30.01,NNW,345,6.0,11.0,-999,0.00,,---,-99.99,VWS V14.01,2013-07-26 09:52:00,
2013-07-26 05:57:00,61.4,-99.9,30.01,North,2,4.0,11.0,-999,0.00,,---,-99.99,VWS V14.01,2013-07-26 09:57:00,
2013-07-26 06:02:00,61.5,-99.9,30.01,North,0,5.0,6.0,-999,0.00,,---,-99.99,VWS V14.01,2013-07-26 10:02:00,
2013-07-26 06:07:00,61.5,-99.9,30.02,NNW,328,4.0,12.0,-999,0.00,,---,-99.99,VWS V14.01,2013-07-26 10:07:00,
2013-07-26 06:12:00,61.5,-99.9,30.02,North,0,4.0,12.0,-999,0.00,,---,-99.99,VWS V14.01,2013-07-26 10:12:00,
2013-07-26 06:17:00,61.6,-99.9,30.01,North,354,6.0,12.0,-999,0.00,,---,-99.99,VWS V14.01,2013-07-26 10:17:00,
2013-07-26 06:22:00,61.6,-99.9,30.01,North,0,6.0,12.0,-999,0.00,,---,-99.99,VWS V14.01,2013-07-26 10:22:00,
2013-07-26 06:27:00,61.7,-99.9,30.02,North,358,8.0,12.0,-999,0.00,,---,-99.99,VWS V14.01,2013-07-26 10:27:00,
2013-07-26 06:32:00,61.7,-99.9,30.02,NNW,347,6.0,8.0,-999,0.00,,---,-99.99,VWS V14.01,2013-07-26 10:32:00,
2013-07-26 06:37:00,61.7,-99.9,30.01,North,0,5.0,10.0,-999,0.00,,---,-99.99,VWS V14.01,2013-07-26 10:37:00,
2013-07-26 06:42:00,61.7,-99.9,30.01,North,350,4.0,11.0,-999,0.00,,---,-99.99,VWS V14.01,2013-07-26 10:42:00,
2013-07-26 06:47:00,61.7,-99.9,30.01,NNW,346,10.0,13.0,-999,0.00,,---,-99.99,VWS V14.01,2013-07-26 10:47:00,
2013-07-26 06:52:00,61.7,-99.9,30.01,NNW,344,5.0,13.0,-999,0.00,,---,-99.99,VWS V14.01,2013-07-26 10:52:00,
2013-07-26 06:57:00,61.8,-99.9,30.01,North,354,6.0,13.0,-999,0.00,,---,-99.99,VWS V14.01,2013-07-26 10:57:00,
2013-07-26 07:02:00,61.8,-99.9,30.02,North,358,7.0,7.0,-999,0.00,,---,-99.99,VWS V14.01,2013-07-26 11:02:00,
2013-07-26 07:07:00,61.8,-99.9,30.02,North,4,3.0,9.0,-999,0.00,,---,-99.99,VWS V14.01,2013-07-26 11:07:00,
2013-07-26 07:12:00,61.8,-99.9,30.02,North,358,11.0,13.0,-999,0.00,,---,-99.99,VWS V14.01,2013-07-26 11:12:00,
2013-07-26 07:17:00,61.8,-99.9,30.02,NNE,23,3.0,13.0,-999,0.00,,---,-99.99,VWS V14.01,2013-07-26 11:17:00,
2013-07-26 07:22:00,61.8,-99.9,30.02,North,5,3.0,13.0,-999,0.00,,---,-99.99,VWS V14.01,2013-07-26 11:22:00,
2013-07-26 07:27:00,61.8,-99.9,30.01,North,0,3.0,13.0,-999,0.00,,---,-99.99,VWS V14.01,2013-07-26 11:27:00,
2013-07-26 07:32:00,61.8,-99.9,30.01,NNW,348,7.0,9.0,-999,0.00,,---,-99.99,VWS V14.01,2013-07-26 11:32:00,
2013-07-26 07:37:00,61.8,-99.9,30.01,North,349,10.0,10.0,-999,0.00,,---,-99.99,VWS V14.01,2013-07-26 11:37:00,
2013-07-26 07:42:00,61.8,-99.9,30.02,North,357,6.0,11.0,-999,0.00,,---,-99.99,VWS V14.01,2013-07-26 11:42:00,
2013-07-26 07:47:00,61.8,-99.9,30.01,North,350,7.0,11.0,-999,0.00,,---,-99.99,VWS V14.01,2013-07-26 11:47:00,
2013-07-26 07:52:00,61.8,-99.9,30.01,North,353,9.0,12.0,-999,0.00,,---,-99.99,VWS V14.01,2013-07-26 11:52:00,
2013-07-26 07:57:00,61.9,-99.9,30.01,North,1,6.0,12.0,-999,0.00,,---,-99.99,VWS V14.01,2013-07-26 11:57:00,
2013-07-26 08:02:00,61.9,-99.9,30.01,NNE,18,8.0,10.0,-999,0.00,,---,-99.99,VWS V14.01,2013-07-26 12:02:00,
2013-07-26 08:07:00,61.9,-99.9,30.01,North,0,5.0,10.0,-999,0.00,,---,-99.99,VWS V14.01,2013-07-26 12:07:00,
2013-07-26 08:12:00,62.0,-99.9,30.01,NNW,348,3.0,10.0,-999,0.00,,---,-99.99,VWS V14.01,2013-07-26 12:12:00,
2013-07-26 08:17:00,62.0,-99.9,30.00,NNW,347,15.0,15.0,-999,0.00,,---,-99.99,VWS V14.01,2013-07-26 12:17:00,
2013-07-26 08:22:00,62.0,-99.9,30.00,North,359,2.0,15.0,-999,0.00,,---,-99.99,VWS V14.01,2013-07-26 12:22:00,
2013-07-26 08:27:00,62.1,-99.9,30.01,North,357,9.0,15.0,-999,0.00,,---,-99.99,VWS V14.01,2013-07-26 12:27:00,
2013-07-26 08:32:00,62.1,-99.9,30.01,NNW,346,6.0,8.0,-999,0.00,,---,-99.99,VWS V14.01,2013-07-26 12:32:00,
2013-07-26 08:37:00,62.1,-99.9,30.00,North,358,6.0,13.0,-999,0.00,,---,-99.99,VWS V14.01,2013-07-26 12:37:00,
2013-07-26 08:42:00,62.1,-99.9,30.00,North,8,6.0,13.0,-999,0.00,,---,-99.99,VWS V14.01,2013-07-26 12:42:00,
2013-07-26 08:47:00,62.2,-99.9,30.00,North,357,6.0,13.0,-999,0.00,,---,-99.99,VWS V14.01,2013-07-26 12:47:00,
2013-07-26 08:52:00,62.3,-99.9,30.00,NNW,348,5.0,13.0,-999,0.00,,---,-99.99,VWS V14.01,2013-07-26 12:52:00,
2013-07-26 08:57:00,62.4,-99.9,30.00,NNW,337,5.0,16.0,-999,0.00,,---,-99.99,VWS V14.01,2013-07-26 12:57:00,
2013-07-26 09:02:00,62.4,-99.9,30.00,North,0,5.0,10.0,-999,0.00,,---,-99.99,VWS V14.01,2013-07-26 13:02:00,
2013-07-26 09:07:00,62.5,-99.9,29.99,NE,34,6.0,13.0,-999,0.00,,---,-99.99,VWS V14.01,2013-07-26 13:07:00,
2013-07-26 09:12:00,62.6,-99.9,30.00,North,355,6.0,13.0,-999,0.00,,---,-99.99,VWS V14.01,2013-07-26 13:12:00,
2013-07-26 09:17:00,62.6,-99.9,30.00,NNW,345,9.0,13.0,-999,0.00,,---,-99.99,VWS V14.01,2013-07-26 13:17:00,
2013-07-26 09:22:00,62.7,-99.9,30.00,North,0,7.0,13.0,-999,0.00,,---,-99.99,VWS V14.01,2013-07-26 13:22:00,
2013-07-26 09:27:00,62.7,-99.9,30.00,NNW,345,7.0,13.0,-999,0.00,,---,-99.99,VWS V14.01,2013-07-26 13:27:00,
2013-07-26 09:32:00,62.9,-99.9,29.99,NNW,347,3.0,8.0,-999,0.00,,---,-99.99,VWS V14.01,2013-07-26 13:32:00,
2013-07-26 09:37:00,63.0,-99.9,29.99,North,358,6.0,11.0,-999,0.00,,---,-99.99,VWS V14.01,2013-07-26 13:37:00,
2013-07-26 09:42:00,63.0,-99.9,29.99,North,349,6.0,13.0,-999,0.00,,---,-99.99,VWS V14.01,2013-07-26 13:42:00,
2013-07-26 09:47:00,63.0,-99.9,29.99,NNW,327,5.0,13.0,-999,0.00,,---,-99.99,VWS V14.01,2013-07-26 13:47:00,
2013-07-26 09:52:00,63.0,-99.9,29.99,North,350,5.0,13.0,-999,0.00,,---,-99.99,VWS V14.01,2013-07-26 13:52:00,
2013-07-26 09:57:00,63.1,-99.9,29.99,North,357,6.0,13.0,-999,0.00,,---,-99.99,VWS V14.01,2013-07-26 13:57:00,
2013-07-26 10:02:00,63.2,-99.9,29.98,North,0,4.0,8.0,-999,0.00,,---,-99.99,VWS V14.01,2013-07-26 14:02:00,
2013-07-26 10:07:00,63.3,-99.9,29.98,North,8,4.0,11.0,-999,0.00,,---,-99.99,VWS V14.01,2013-07-26 14:07:00,
2013-07-26 10:12:00,63.4,-99.9,29.98,NNE,13,5.0,11.0,-999,0.00,,---,-99.99,VWS V14.01,2013-07-26 14:12:00,
2013-07-26 10:17:00,63.5,-99.9,29.98,North,352,4.0,11.0,-999,0.00,,---,-99.99,VWS V14.01,2013-07-26 14:17:00,
2013-07-26 10:22:00,63.6,-99.9,29.98,NNW,334,12.0,15.0,-999,0.00,,---,-99.99,VWS V14.01,2013-07-26 14:22:00,
2013-07-26 10:27:00,63.7,-99.9,29.97,North,7,5.0,15.0,-999,0.00,,---,-99.99,VWS V14.01,2013-07-26 14:27:00,
2013-07-26 10:32:00,63.8,-99.9,29.97,North,2,7.0,14.0,-999,0.00,,---,-99.99,VWS V14.01,2013-07-26 14:32:00,
2013-07-26 10:37:00,63.9,-99.9,29.97,NNW,345,4.0,14.0,-999,0.00,,---,-99.99,VWS V14.01,2013-07-26 14:37:00,
2013-07-26 10:42:00,64.0,-99.9,29.97,North,1,9.0,14.0,-999,0.00,,---,-99.99,VWS V14.01,2013-07-26 14:42:00,
2013-07-26 10:47:00,64.0,-99.9,29.97,NNW,332,5.0,14.0,-999,0.00,,---,-99.99,VWS V14.01,2013-07-26 14:47:00,
2013-07-26 10:52:00,64.1,-99.9,29.97,North,1,6.0,14.0,-999,0.00,,---,-99.99,VWS V14.01,2013-07-26 14:52:00,
2013-07-26 10:57:00,64.3,-99.9,29.97,NNW,348,3.0,14.0,-999,0.00,,---,-99.99,VWS V14.01,2013-07-26 14:57:00,
2013-07-26 11:02:00,64.4,-99.9,29.97,NNW,333,7.0,12.0,-999,0.00,,---,-99.99,VWS V14.01,2013-07-26 15:02:00,
2013-07-26 11:07:00,64.5,-99.9,29.97,NNW,346,6.0,12.0,-999,0.00,,---,-99.99,VWS V14.01,2013-07-26 15:07:00,
2013-07-26 11:12:00,64.5,-99.9,29.97,NNW,333,5.0,12.0,-999,0.00,,---,-99.99,VWS V14.01,2013-07-26 15:12:00,
2013-07-26 11:17:00,64.4,-99.9,29.97,WNW,286,4.0,12.0,-999,0.00,,---,-99.99,VWS V14.01,2013-07-26 15:17:00,
2013-07-26 11:22:00,64.5,-99.9,29.97,North,0,5.0,12.0,-999,0.00,,---,-99.99,VWS V14.01,2013-07-26 15:22:00,
2013-07-26 11:27:00,64.5,-99.9,29.96,North,1,9.0,16.0,-999,0.00,,---,-99.99,VWS V14.01,2013-07-26 15:27:00,
2013-07-26 11:32:00,64.6,-99.9,29.97,North,352,2.0,9.0,-999,0.00,,---,-99.99,VWS V14.01,2013-07-26 15:32:00,
2013-07-26 11:37:00,64.8,-99.9,29.97,North,359,7.0,12.0,-999,0.00,,---,-99.99,VWS V14.01,2013-07-26 15:37:00,
2013-07-26 11:42:00,64.9,-99.9,29.97,North,0,3.0,12.0,-999,0.00,,---,-99.99,VWS V14.01,2013-07-26 15:42:00,
2013-07-26 11:47:00,65.0,-99.9,29.96,North,349,6.0,12.0,-999,0.00,,---,-99.99,VWS V14.01,2013-07-26 15:47:00,
2013-07-26 11:52:00,65.3,-99.9,29.97,NNW,342,5.0,12.0,-999,0.00,,---,-99.99,VWS V14.01,2013-07-26 15:52:00,
2013-07-26 11:57:00,65.5,-99.9,29.96,North,349,5.0,12.0,-999,0.00,,---,-99.99,VWS V14.01,2013-07-26 15:57:00,
2013-07-26 12:02:00,65.8,-99.9,29.96,North,10,7.0,7.0,-999,0.00,,---,-99.99,VWS V14.01,2013-07-26 16:02:00,
2013-07-26 12:07:00,66.2,-99.9,29.96,NW,318,3.0,10.0,-999,0.00,,---,-99.99,VWS V14.01,2013-07-26 16:07:00,
2013-07-26 12:12:00,66.6,-99.9,29.96,North,0,5.0,12.0,-999,0.00,,---,-99.99,VWS V14.01,2013-07-26 16:12:00,
2013-07-26 12:17:00,66.9,-99.9,29.96,NNW,348,7.0,13.0,-999,0.00,,---,-99.99,VWS V14.01,2013-07-26 16:17:00,
2013-07-26 12:22:00,67.1,-99.9,29.96,North,1,9.0,14.0,-999,0.00,,---,-99.99,VWS V14.01,2013-07-26 16:22:00,
2013-07-26 12:27:00,67.3,-99.9,29.96,North,349,9.0,14.0,-999,0.00,,---,-99.99,VWS V14.01,2013-07-26 16:27:00,
2013-07-26 12:32:00,67.5,-99.9,29.96,North,357,2.0,7.0,-999,0.00,,---,-99.99,VWS V14.01,2013-07-26 16:32:00,
2013-07-26 12:37:00,67.7,-99.9,29.96,North,0,4.0,9.0,-999,0.00,,---,-99.99,VWS V14.01,2013-07-26 16:37:00,
2013-07-26 12:42:00,67.9,-99.9,29.96,North,11,3.0,9.0,-999,0.00,,---,-99.99,VWS V14.01,2013-07-26 16:42:00,
2013-07-26 12:47:00,68.3,-99.9,29.96,North,354,4.0,12.0,-999,0.00,,---,-99.99,VWS V14.01,2013-07-26 16:47:00,
2013-07-26 12:52:00,68.9,-99.9,29.95,North,5,7.0,12.0,-999,0.00,,---,-99.99,VWS V14.01,2013-07-26 16:52:00,
2013-07-26 12:57:00,69.4,-99.9,29.95,North,357,7.0,13.0,-999,0.00,,---,-99.99,VWS V14.01,2013-07-26 16:57:00,
2013-07-26 13:02:00,69.6,-99.9,29.95,North,359,9.0,13.0,-999,0.00,,---,-99.99,VWS V14.01,2013-07-26 17:02:00,
2013-07-26 13:07:00,69.8,-99.9,29.94,NNW,345,6.0,17.0,-999,0.00,,---,-99.99,VWS V14.01,2013-07-26 17:07:00,
2013-07-26 13:12:00,70.2,-99.9,29.94,NNW,335,12.0,17.0,-999,0.00,,---,-99.99,VWS V14.01,2013-07-26 17:12:00,
2013-07-26 13:17:00,70.5,-99.9,29.94,North,349,9.0,17.0,-999,0.00,,---,-99.99,VWS V14.01,2013-07-26 17:17:00,
2013-07-26 13:22:00,70.5,-99.9,29.95,NNW,347,6.0,17.0,-999,0.00,,---,-99.99,VWS V14.01,2013-07-26 17:22:00,
2013-07-26 13:27:00,70.5,-99.9,29.94,NNW,343,5.0,17.0,-999,0.00,,---,-99.99,VWS V14.01,2013-07-26 17:27:00,
2013-07-26 13:32:00,70.6,-99.9,29.94,WNW,300,4.0,8.0,-999,0.00,,---,-99.99,VWS V14.01,2013-07-26 17:32:00,
2013-07-26 13:37:00,70.6,-99.9,29.94,North,354,8.0,17.0,-999,0.00,,---,-99.99,VWS V14.01,2013-07-26 17:37:00,
2013-07-26 13:42:00,70.7,-99.9,29.94,North,350,10.0,17.0,-999,0.00,,---,-99.99,VWS V14.01,2013-07-26 17:42:00,
2013-07-26 13:47:00,70.7,-99.9,29.94,NNE,12,8.0,17.0,-999,0.00,,---,-99.99,VWS V14.01,2013-07-26 17:47:00,
2013-07-26 13:52:00,70.8,-99.9,29.94,NW,321,5.0,17.0,-999,0.00,,---,-99.99,VWS V14.01,2013-07-26 17:52:00,
2013-07-26 13:57:00,70.8,-99.9,29.94,North,0,6.0,17.0,-999,0.00,,---,-99.99,VWS V14.01,2013-07-26 17:57:00,
2013-07-26 14:02:00,70.6,-99.9,29.94,NNW,346,6.0,12.0,-999,0.00,,---,-99.99,VWS V14.01,2013-07-26 18:02:00,
2013-07-26 14:07:00,70.6,-99.9,29.93,North,0,3.0,12.0,-999,0.00,,---,-99.99,VWS V14.01,2013-07-26 18:07:00,
2013-07-26 14:12:00,70.8,-99.9,29.93,North,357,6.0,12.0,-999,0.00,,---,-99.99,VWS V14.01,2013-07-26 18:12:00,
2013-07-26 14:17:00,71.1,-99.9,29.93,North,352,5.0,12.0,-999,0.00,,---,-99.99,VWS V14.01,2013-07-26 18:17:00,
2013-07-26 14:22:00,71.4,-99.9,29.93,NNW,333,1.0,12.0,-999,0.00,,---,-99.99,VWS V14.01,2013-07-26 18:22:00,
2013-07-26 14:27:00,71.8,-99.9,29.93,North,353,3.0,12.0,-999,0.00,,---,-99.99,VWS V14.01,2013-07-26 18:27:00,
2013-07-26 14:32:00,72.1,-99.9,29.93,NNW,341,3.0,6.0,-999,0.00,,---,-99.99,VWS V14.01,2013-07-26 18:32:00,
2013-07-26 14:37:00,72.4,-99.9,29.93,NW,304,8.0,12.0,-999,0.00,,---,-99.99,VWS V14.01,2013-07-26 18:37:00,
2013-07-26 14:42:00,72.4,-99.9,29.93,North,359,12.0,16.0,-999,0.00,,---,-99.99,VWS V14.01,2013-07-26 18:42:00,
2013-07-26 14:47:00,72.3,-99.9,29.92,North,0,5.0,16.0,-999,0.00,,---,-99.99,VWS V14.01,2013-07-26 18:47:00,
2013-07-26 14:52:00,72.2,-99.9,29.93,North,0,3.0,16.0,-999,0.00,,---,-99.99,VWS V14.01,2013-07-26 18:52:00,
2013-07-26 14:57:00,72.1,-99.9,29.93,North,356,7.0,16.0,-999,0.00,,---,-99.99,VWS V14.01,2013-07-26 18:57:00,
2013-07-26 15:02:00,72.1,-99.9,29.93,North,0,5.0,8.0,-999,0.00,,---,-99.99,VWS V14.01,2013-07-26 19:02:00,
2013-07-26 15:07:00,72.3,-99.9,29.93,NW,326,3.0,9.0,-999,0.00,,---,-99.99,VWS V14.01,2013-07-26 19:07:00,
2013-07-26 15:12:00,72.3,-99.9,29.93,North,8,1.0,9.0,-999,0.00,,---,-99.99,VWS V14.01,2013-07-26 19:12:00,
2013-07-26 15:17:00,72.1,-99.9,29.93,North,358,7.0,9.0,-999,0.00,,---,-99.99,VWS V14.01,2013-07-26 19:17:00,
2013-07-26 15:22:00,71.9,-99.9,29.93,WNW,301,5.0,9.0,-999,0.00,,---,-99.99,VWS V14.01,2013-07-26 19:22:00,
2013-07-26 15:27:00,71.7,-99.9,29.93,NNW,348,4.0,13.0,-999,0.00,,---,-99.99,VWS V14.01,2013-07-26 19:27:00,
2013-07-26 15:32:00,71.5,-99.9,29.93,North,353,5.0,13.0,-999,0.00,,---,-99.99,VWS V14.01,2013-07-26 19:32:00,
2013-07-26 15:37:00,71.4,-99.9,29.93,North,0,2.0,13.0,-999,0.00,,---,-99.99,VWS V14.01,2013-07-26 19:37:00,
2013-07-26 15:42:00,71.4,-99.9,29.93,NW,307,3.0,13.0,-999,0.00,,---,-99.99,VWS V14.01,2013-07-26 19:42:00,
2013-07-26 15:47:00,71.4,-99.9,29.93,NNW,334,4.0,13.0,-999,0.00,,---,-99.99,VWS V14.01,2013-07-26 19:47:00,
2013-07-26 15:52:00,71.4,-99.9,29.93,NNW,342,3.0,13.0,-999,0.00,,---,-99.99,VWS V14.01,2013-07-26 19:52:00,
2013-07-26 15:57:00,71.3,-99.9,29.93,North,1,3.0,13.0,-999,0.00,,---,-99.99,VWS V14.01,2013-07-26 19:57:00,
2013-07-26 16:02:00,71.2,-99.9,29.93,North,358,4.0,6.0,-999,0.00,,---,-99.99,VWS V14.01,2013-07-26 20:02:00,
2013-07-26 16:07:00,71.3,-99.9,29.93,WNW,300,3.0,9.0,-999,0.00,,---,-99.99,VWS V14.01,2013-07-26 20:07:00,
2013-07-26 16:12:00,71.4,-99.9,29.93,NNW,342,1.0,9.0,-999,0.00,,---,-99.99,VWS V14.01,2013-07-26 20:12:00,
2013-07-26 16:17:00,71.5,-99.9,29.93,NW,309,6.0,9.0,-999,0.00,,---,-99.99,VWS V14.01,2013-07-26 20:17:00,
2013-07-26 16:22:00,71.6,-99.9,29.93,NNW,329,3.0,9.0,-999,0.00,,---,-99.99,VWS V14.01,2013-07-26 20:22:00,
2013-07-26 16:27:00,71.6,-99.9,29.93,WNW,291,2.0,9.0,-999,0.00,,---,-99.99,VWS V14.01,2013-07-26 20:27:00,
2013-07-26 16:32:00,71.6,-99.9,29.92,NW,326,2.0,5.0,-999,0.00,,---,-99.99,VWS V14.01,2013-07-26 20:32:00,
2013-07-26 16:37:00,71.6,-99.9,29.92,NW,306,3.0,6.0,-999,0.00,,---,-99.99,VWS V14.01,2013-07-26 20:37:00,
2013-07-26 16:42:00,71.5,-99.9,29.92,WNW,282,2.0,7.0,-999,0.00,,---,-99.99,VWS V14.01,2013-07-26 20:42:00,
2013-07-26 16:47:00,71.3,-99.9,29.93,NW,307,0.0,8.0,-999,0.00,,---,-99.99,VWS V14.01,2013-07-26 20:47:00,
2013-07-26 16:52:00,71.2,-99.9,29.92,NNW,328,5.0,8.0,-999,0.00,,---,-99.99,VWS V14.01,2013-07-26 20:52:00,
2013-07-26 16:57:00,70.9,-99.9,29.93,NNW,337,0.0,9.0,-999,0.00,,---,-99.99,VWS V14.01,2013-07-26 20:57:00,
2013-07-26 17:02:00,70.7,-99.9,29.93,North,0,4.0,5.0,-999,0.00,,---,-99.99,VWS V14.01,2013-07-26 21:02:00,
2013-07-26 17:07:00,70.4,-99.9,29.93,NNW,327,5.0,11.0,-999,0.00,,---,-99.99,VWS V14.01,2013-07-26 21:07:00,
2013-07-26 17:12:00,70.1,-99.9,29.93,NE,40,4.0,11.0,-999,0.00,,---,-99.99,VWS V14.01,2013-07-26 21:12:00,
2013-07-26 17:17:00,69.9,-99.9,29.93,NW,305,3.0,11.0,-999,0.00,,---,-99.99,VWS V14.01,2013-07-26 21:17:00,
2013-07-26 17:22:00,69.7,-99.9,29.93,NNW,348,3.0,11.0,-999,0.00,,---,-99.99,VWS V14.01,2013-07-26 21:22:00,
2013-07-26 17:27:00,69.6,-99.9,29.93,NW,318,6.0,11.0,-999,0.00,,---,-99.99,VWS V14.01,2013-07-26 21:27:00,
2013-07-26 17:32:00,69.5,-99.9,29.94,NW,320,7.0,9.0,-999,0.00,,---,-99.99,VWS V14.01,2013-07-26 21:32:00,
2013-07-26 17:37:00,69.5,-99.9,29.94,North,0,6.0,10.0,-999,0.00,,---,-99.99,VWS V14.01,2013-07-26 21:37:00,
2013-07-26 17:42:00,69.4,-99.9,29.94,NNW,327,9.0,10.0,-999,0.00,,---,-99.99,VWS V14.01,2013-07-26 21:42:00,
2013-07-26 17:47:00,69.4,-99.9,29.94,WNW,290,3.0,10.0,-999,0.00,,---,-99.99,VWS V14.01,2013-07-26 21:47:00,
2013-07-26 17:52:00,69.5,-99.9,29.94,North,349,2.0,10.0,-999,0.00,,---,-99.99,VWS V14.01,2013-07-26 21:52:00,
2013-07-26 17:57:00,69.5,-99.9,29.94,NW,313,1.0,10.0,-999,0.00,,---,-99.99,VWS V14.01,2013-07-26 21:57:00,
2013-07-26 18:02:00,69.3,-99.9,29.94,NW,324,0.0,5.0,-999,0.00,,---,-99.99,VWS V14.01,2013-07-26 22:02:00,
2013-07-26 18:07:00,69.1,-99.9,29.94,NW,324,0.0,5.0,-999,0.00,,---,-99.99,VWS V14.01,2013-07-26 22:07:00,
2013-07-26 18:12:00,68.9,-99.9,29.94,NNW,331,1.0,5.0,-999,0.00,,---,-99.99,VWS V14.01,2013-07-26 22:12:00,
2013-07-26 18:17:00,68.8,-99.9,29.94,North,358,1.0,5.0,-999,0.00,,---,-99.99,VWS V14.01,2013-07-26 22:17:00,
2013-07-26 18:22:00,68.7,-99.9,29.94,NW,319,2.0,5.0,-999,0.00,,---,-99.99,VWS V14.01,2013-07-26 22:22:00,
2013-07-26 18:27:00,68.7,-99.9,29.94,West,265,0.0,7.0,-999,0.00,,---,-99.99,VWS V14.01,2013-07-26 22:27:00,
2013-07-26 18:32:00,68.6,-99.9,29.94,WNW,294,0.0,4.0,-999,0.00,,---,-99.99,VWS V14.01,2013-07-26 22:32:00,
2013-07-26 18:37:00,68.5,-99.9,29.95,West,277,6.0,6.0,-999,0.00,,---,-99.99,VWS V14.01,2013-07-26 22:37:00,
2013-07-26 18:42:00,68.5,-99.9,29.95,WSW,253,1.0,6.0,-999,0.00,,---,-99.99,VWS V14.01,2013-07-26 22:42:00,
2013-07-26 18:47:00,68.4,-99.9,29.95,WSW,252,2.0,6.0,-999,0.00,,---,-99.99,VWS V14.01,2013-07-26 22:47:00,
2013-07-26 18:52:00,68.3,-99.9,29.95,WSW,251,0.0,6.0,-999,0.00,,---,-99.99,VWS V14.01,2013-07-26 22:52:00,
2013-07-26 18:57:00,68.3,-99.9,29.95,WSW,250,0.0,6.0,-999,0.00,,---,-99.99,VWS V14.01,2013-07-26 22:57:00,
2013-07-26 19:02:00,68.3,-99.9,29.95,WSW,250,0.0,0.0,-999,0.00,,---,-99.99,VWS V14.01,2013-07-26 23:02:00,
2013-07-26 19:07:00,68.2,-99.9,29.95,WSW,250,0.0,0.0,-999,0.00,,---,-99.99,VWS V14.01,2013-07-26 23:07:00,
2013-07-26 19:12:00,68.1,-99.9,29.95,West,264,0.0,7.0,-999,0.00,,---,-99.99,VWS V14.01,2013-07-26 23:12:00,
2013-07-26 19:17:00,68.1,-99.9,29.95,West,264,0.0,7.0,-999,0.00,,---,-99.99,VWS V14.01,2013-07-26 23:17:00,
2013-07-26 19:22:00,68.0,-99.9,29.95,West,264,0.0,7.0,-999,0.00,,---,-99.99,VWS V14.01,2013-07-26 23:22:00,
2013-07-26 19:27:00,67.9,-99.9,29.95,West,270,0.0,7.0,-999,0.00,,---,-99.99,VWS V14.01,2013-07-26 23:27:00,
2013-07-26 19:32:00,67.9,-99.9,29.95,West,270,0.0,0.0,-999,0.00,,---,-99.99,VWS V14.01,2013-07-26 23:32:00,
2013-07-26 19:37:00,67.8,-99.9,29.96,West,270,0.0,0.0,-999,0.00,,---,-99.99,VWS V14.01,2013-07-26 23:37:00,
2013-07-26 19:42:00,67.8,-99.9,29.96,West,270,0.0,0.0,-999,0.00,,---,-99.99,VWS V14.01,2013-07-26 23:42:00,
2013-07-26 19:47:00,67.8,-99.9,29.96,West,270,0.0,0.0,-999,0.00,,---,-99.99,VWS V14.01,2013-07-26 23:47:00,
2013-07-26 19:52:00,67.8,-99.9,29.96,West,270,0.0,0.0,-999,0.00,,---,-99.99,VWS V14.01,2013-07-26 23:52:00,
2013-07-26 19:57:00,67.8,-99.9,29.96,SSE,166,0.0,0.0,-999,0.00,,---,-99.99,VWS V14.01,2013-07-26 23:57:00,
2013-07-26 20:02:00,67.7,-99.9,29.96,SSE,166,0.0,0.0,-999,0.00,,---,-99.99,VWS V14.01,2013-07-27 00:02:00,
2013-07-26 20:07:00,67.7,-99.9,29.96,SW,218,1.0,5.0,-999,0.00,,---,-99.99,VWS V14.01,2013-07-27 00:07:00,
2013-07-26 20:12:00,67.7,-99.9,29.95,SW,218,0.0,5.0,-999,0.00,,---,-99.99,VWS V14.01,2013-07-27 00:12:00,
2013-07-26 20:17:00,67.7,-99.9,29.96,SW,218,0.0,5.0,-999,0.00,,---,-99.99,VWS V14.01,2013-07-27 00:17:00,
2013-07-26 20:22:00,67.7,-99.9,29.96,SW,218,0.0,5.0,-999,0.00,,---,-99.99,VWS V14.01,2013-07-27 00:22:00,
2013-07-26 20:27:00,67.6,-99.9,29.96,SW,218,0.0,5.0,-999,0.00,,---,-99.99,VWS V14.01,2013-07-27 00:27:00,
2013-07-26 20:32:00,67.6,-99.9,29.97,SW,217,3.0,3.0,-999,0.00,,---,-99.99,VWS V14.01,2013-07-27 00:32:00,
2013-07-26 20:37:00,67.6,-99.9,29.97,SW,218,0.0,3.0,-999,0.00,,---,-99.99,VWS V14.01,2013-07-27 00:37:00,
2013-07-26 20:42:00,67.7,-99.9,29.97,SW,218,0.0,3.0,-999,0.00,,---,-99.99,VWS V14.01,2013-07-27 00:42:00,
2013-07-26 20:47:00,67.6,-99.9,29.96,SW,218,0.0,3.0,-999,0.00,,---,-99.99,VWS V14.01,2013-07-27 00:47:00,
2013-07-26 20:52:00,67.5,-99.9,29.96,SW,218,0.0,3.0,-999,0.00,,---,-99.99,VWS V14.01,2013-07-27 00:52:00,
2013-07-26 20:57:00,67.4,-99.9,29.97,SW,218,0.0,3.0,-999,0.00,,---,-99.99,VWS V14.01,2013-07-27 00:57:00,
2013-07-26 21:02:00,67.4,-99.9,29.97,SW,218,0.0,1.0,-999,0.00,,---,-99.99,VWS V14.01,2013-07-27 01:02:00,
2013-07-26 21:07:00,67.4,-99.9,29.97,SW,218,0.0,1.0,-999,0.00,,---,-99.99,VWS V14.01,2013-07-27 01:07:00,
2013-07-26 21:12:00,67.4,-99.9,29.97,SW,218,0.0,1.0,-999,0.00,,---,-99.99,VWS V14.01,2013-07-27 01:12:00,
2013-07-26 21:17:00,67.4,-99.9,29.97,SW,218,0.0,1.0,-999,0.00,,---,-99.99,VWS V14.01,2013-07-27 01:17:00,
2013-07-26 21:22:00,67.3,-99.9,29.97,SW,218,0.0,1.0,-999,0.00,,---,-99.99,VWS V14.01,2013-07-27 01:22:00,
2013-07-26 21:27:00,67.2,-99.9,29.98,SW,218,0.0,1.0,-999,0.00,,---,-99.99,VWS V14.01,2013-07-27 01:27:00,
2013-07-26 21:32:00,67.2,-99.9,29.98,SW,218,0.0,0.0,-999,0.00,,---,-99.99,VWS V14.01,2013-07-27 01:32:00,
2013-07-26 21:37:00,67.2,-99.9,29.98,SW,218,0.0,0.0,-999,0.00,,---,-99.99,VWS V14.01,2013-07-27 01:37:00,
2013-07-26 21:42:00,67.1,-99.9,29.97,SW,218,0.0,0.0,-999,0.00,,---,-99.99,VWS V14.01,2013-07-27 01:42:00,
2013-07-26 21:47:00,67.1,-99.9,29.97,SW,218,0.0,2.0,-999,0.00,,---,-99.99,VWS V14.01,2013-07-27 01:47:00,
2013-07-26 21:52:00,67.2,-99.9,29.97,SW,218,0.0,4.0,-999,0.00,,---,-99.99,VWS V14.01,2013-07-27 01:52:00,
2013-07-26 21:57:00,67.3,-99.9,29.97,SW,218,1.0,4.0,-999,0.00,,---,-99.99,VWS V14.01,2013-07-27 01:57:00,
2013-07-26 22:03:00,67.3,-99.9,29.97,SW,218,0.0,2.0,-999,0.00,,---,-99.99,VWS V14.01,2013-07-27 02:03:00,
2013-07-26 22:08:00,67.3,-99.9,29.97,SW,218,0.0,2.0,-999,0.00,,---,-99.99,VWS V14.01,2013-07-27 02:08:00,
2013-07-26 22:13:00,67.3,-99.9,29.97,SW,218,4.0,4.0,-999,0.00,,---,-99.99,VWS V14.01,2013-07-27 02:13:00,
2013-07-26 22:18:00,67.2,-99.9,29.97,SW,218,4.0,5.0,-999,0.00,,---,-99.99,VWS V14.01,2013-07-27 02:18:00,
2013-07-26 22:23:00,67.1,-99.9,29.97,SW,219,2.0,5.0,-999,0.00,,---,-99.99,VWS V14.01,2013-07-27 02:23:00,
2013-07-26 22:28:00,67.1,-99.9,29.97,SW,219,1.0,5.0,-999,0.00,,---,-99.99,VWS V14.01,2013-07-27 02:28:00,
2013-07-26 22:33:00,67.0,-99.9,29.97,SW,221,2.0,5.0,-999,0.00,,---,-99.99,VWS V14.01,2013-07-27 02:33:00,
2013-07-26 22:38:00,67.0,-99.9,29.97,SW,224,3.0,8.0,-999,0.00,,---,-99.99,VWS V14.01,2013-07-27 02:38:00,
2013-07-26 22:43:00,66.9,-99.9,29.97,SW,223,3.0,8.0,-999,0.00,,---,-99.99,VWS V14.01,2013-07-27 02:43:00,
2013-07-26 22:48:00,66.8,-99.9,29.97,SW,217,2.0,8.0,-999,0.00,,---,-99.99,VWS V14.01,2013-07-27 02:48:00,
2013-07-26 22:53:00,66.8,-99.9,29.97,SW,215,3.0,8.0,-999,0.00,,---,-99.99,VWS V14.01,2013-07-27 02:53:00,
2013-07-26 22:58:00,66.7,-99.9,29.97,WSW,246,2.0,8.0,-999,0.00,,---,-99.99,VWS V14.01,2013-07-27 02:58:00,
2013-07-26 23:03:00,66.6,-99.9,29.97,SW,217,5.0,7.0,-999,0.00,,---,-99.99,VWS V14.01,2013-07-27 03:03:00,
2013-07-26 23:08:00,66.5,-99.9,29.98,SW,227,1.0,7.0,-999,0.00,,---,-99.99,VWS V14.01,2013-07-27 03:08:00,
2013-07-26 23:13:00,66.4,-99.9,29.97,SSW,208,4.0,7.0,-999,0.00,,---,-99.99,VWS V14.01,2013-07-27 03:13:00,
2013-07-26 23:18:00,66.3,-99.9,29.98,SW,215,2.0,7.0,-999,0.00,,---,-99.99,VWS V14.01,2013-07-27 03:18:00,
2013-07-26 23:23:00,66.2,-99.9,29.98,SW,219,3.0,7.0,-999,0.00,,---,-99.99,VWS V14.01,2013-07-27 03:23:00,
2013-07-26 23:28:00,66.1,-99.9,29.98,SSW,209,0.0,7.0,-999,0.00,,---,-99.99,VWS V14.01,2013-07-27 03:28:00,
2013-07-26 23:33:00,66.0,-99.9,29.98,SSW,211,0.0,0.0,-999,0.00,,---,-99.99,VWS V14.01,2013-07-27 03:33:00,
2013-07-26 23:38:00,65.8,-99.9,29.98,SSW,211,0.0,1.0,-999,0.00,,---,-99.99,VWS V14.01,2013-07-27 03:38:00,
2013-07-26 23:43:00,65.8,-99.9,29.98,SSW,211,0.0,1.0,-999,0.00,,---,-99.99,VWS V14.01,2013-07-27 03:43:00,
2013-07-26 23:48:00,65.7,-99.9,29.98,SSW,213,4.0,5.0,-999,0.00,,---,-99.99,VWS V14.01,2013-07-27 03:48:00,
2013-07-26 23:53:00,65.6,-99.9,29.98,SSW,213,0.0,5.0,-999,0.00,,---,-99.99,VWS V14.01,2013-07-27 03:53:00,
2013-07-26 23:58:00,65.5,-99.9,29.98,SSW,213,1.0,5.0,-999,0.00,,---,-99.99,VWS V14.01,2013-07-27 03:58:00,